User: anonymous   Login
Location: Girdwood
(60.9430°N, 149.1660°W)
Time: 23:14:11
(UTC-08:00)
Language:

Iridium 86 - Orbit

View from above orbital plane
View from above orbital plane
View from above satellite
View from above satellite

Ground track
Ground track

The orbit data is extracted from the following two-line orbital elements,

1 25528U 98066B   16180.38678118  .00000128  00000-0  38561-4 0  9997
2 25528  86.3970 137.7410 0002527  85.2479 274.9006 14.34218987928656
Epoch (UTC): 28 June 2016 09:16:57
Eccentricity: 0.0002527
inclination: 86.3970°
perigee height: 776 km
apogee height: 779 km
right ascension of ascending node: 137.7410°
argument of perigee: 85.2479°
revolutions per day: 14.34218987
mean anomaly at epoch: 274.9006°
orbit number at epoch: 92865

The dashed part of the orbit path shows where the satellite is in the earth's shadow,  

DLR